Date String (YYYY-MM-DD hh:mm:ss) UTC,Instrument flags,absolute air pressure of the measurement (hPa),sample flow rate (lpm),inlet stack bypass flow (lpm),air temperature of the measurement (°C),ambient temperature measured by the external sensor (°C),aerosol sample conditioner tube jacket temperature (°C),OPC LED temperature (°C),internal box temperature (°C),relative humidity of the measurement (%),span deviation,mass concentration of particles derived from Lorenz-Mie calculation of OPC scattering (μg/m³),mass concentration of particles derived from Lorenz-Mie calculation of OPC scattering (μg/m³),mass concentration of particles derived from Lorenz-Mie calculation of OPC scattering (μg/m³)
DateTimeUTC,F1_M11,P_M11,Q1_M11,Q2_M11,T1_M11,T2_M11,T3_M11,T4_M11,T5_M11,U1_M11,ZSPAN_M11,X2_M11,X0_M11,X1_M11
2023-12-29 04:00:00,SystemResetWarning,0834.4,5.01,000.00,021.8,020.4,000.0,030.2,023.1,8.7,0000.0,0001.39,0002.17,0001.10
2023-12-29 04:01:00,SystemResetWarning,0834.4,5.01,000.00,021.8,020.4,000.0,030.2,023.1,8.6,0000.0,0001.37,0002.30,0001.08
2023-12-29 04:02:00,SystemResetWarning,0834.4,5.00,000.00,021.8,020.4,000.0,030.2,023.1,8.5,0000.0,0001.35,0002.38,0001.06
2023-12-29 04:03:00,SystemResetWarning,0834.5,5.00,000.00,021.8,020.4,000.0,030.2,023.1,8.3,0000.0,0001.33,0002.46,0001.04
2023-12-29 04:04:00,SystemResetWarning,0834.4,5.00,000.00,021.7,020.4,000.0,030.2,023.1,8.2,0000.0,0001.31,0002.34,0001.03
2023-12-29 04:05:00,SystemResetWarning,0834.4,4.99,000.00,021.7,020.4,000.0,030.2,023.1,8.1,0000.0,0001.31,0002.31,0001.01
2023-12-29 04:06:00,SystemResetWarning,0834.4,4.99,000.00,021.7,020.4,000.0,030.1,023.1,8.1,0000.0,0001.28,0002.25,0001.01
2023-12-29 04:07:00,SystemResetWarning,0834.4,5.00,000.00,021.7,020.3,000.0,030.1,023.0,8.1,0000.0,0001.30,0002.32,0001.01
2023-12-29 04:08:00,SystemResetWarning,0834.4,5.01,000.00,021.7,020.3,000.0,030.1,023.1,8.1,0000.0,0001.33,0002.64,0001.00
2023-12-29 04:09:00,SystemResetWarning,0834.4,5.01,000.00,021.7,020.3,000.0,030.1,023.0,8.1,0000.0,0001.32,0002.77,0000.98
2023-12-29 04:10:00,SystemResetWarning,0834.4,4.99,000.00,021.7,020.3,000.0,030.1,023.0,8.1,0000.0,0001.32,0002.89,0000.97
2023-12-29 04:11:00,SystemResetWarning,0834.3,5.00,000.00,021.7,020.3,000.0,030.1,023.0,8.1,0000.0,0001.27,0002.70,0000.98
2023-12-29 04:12:00,SystemResetWarning,0834.3,5.00,000.00,021.7,020.3,000.0,030.1,023.0,8.1,0000.0,0001.26,0003.08,0000.97
2023-12-29 04:13:00,SystemResetWarning,0834.4,5.00,000.00,021.7,020.3,000.0,030.1,023.0,8.1,0000.0,0001.25,0003.51,0000.97
2023-12-29 04:14:00,SystemResetWarning,0834.4,5.00,000.00,021.6,020.3,000.0,030.1,023.0,8.0,0000.0,0001.27,0003.47,0000.99
2023-12-29 04:15:00,SystemResetWarning,0834.4,5.00,000.00,021.6,020.3,000.0,030.0,023.0,8.1,0000.0,0001.31,0003.53,0001.01
2023-12-29 04:16:00,SystemResetWarning,0834.4,5.00,000.00,021.6,020.3,000.0,030.0,023.0,8.1,0000.0,0001.31,0003.54,0001.01
2023-12-29 04:17:00,SystemResetWarning,0834.4,5.00,000.00,021.6,020.3,000.0,030.0,022.9,8.0,0000.0,0001.32,0003.61,0001.01
2023-12-29 04:18:00,SystemResetWarning,0834.3,5.00,000.00,021.6,020.3,000.0,030.0,022.9,7.8,0000.0,0001.30,0003.54,0001.01
2023-12-29 04:19:00,SystemResetWarning,0834.5,5.00,000.00,021.6,020.2,000.0,030.0,022.9,7.8,0000.0,0001.29,0003.91,0001.03
2023-12-29 04:20:00,SystemResetWarning,0834.3,5.01,000.00,021.6,020.2,000.0,030.0,022.9,7.8,0000.0,0001.25,0003.93,0001.04
2023-12-29 04:21:00,SystemResetWarning,0834.5,5.00,000.00,021.6,020.2,000.0,030.0,022.9,7.9,0000.0,0001.26,0003.80,0001.05
2023-12-29 04:22:00,SystemResetWarning,0834.6,5.00,000.00,021.5,020.2,000.0,030.0,022.9,8.0,0000.0,0001.28,0003.86,0001.05
2023-12-29 04:23:00,SystemResetWarning,0834.7,5.00,000.00,021.5,020.2,000.0,029.9,022.9,7.8,0000.0,0001.29,0003.32,0001.06
2023-12-29 04:24:00,SystemResetWarning,0834.5,5.00,000.00,021.5,020.2,000.0,029.9,022.9,7.8,0000.0,0001.29,0002.69,0001.07
2023-12-29 04:25:00,SystemResetWarning,0834.4,5.00,000.00,021.5,020.2,000.0,029.9,022.8,7.8,0000.0,0001.27,0002.75,0001.05
2023-12-29 04:26:00,SystemResetWarning,0834.6,5.00,000.00,021.5,020.2,000.0,029.9,022.8,7.9,0000.0,0001.26,0002.85,0001.04
2023-12-29 04:27:00,SystemResetWarning,0834.5,5.00,000.00,021.5,020.2,000.0,029.9,022.8,7.8,0000.0,0001.26,0002.90,0001.04
2023-12-29 04:28:00,SystemResetWarning,0834.4,5.00,000.00,021.5,020.2,000.0,029.9,022.8,7.8,0000.0,0001.31,0003.06,0001.03
2023-12-29 04:29:00,SystemResetWarning,0834.2,5.00,000.00,021.5,020.2,000.0,029.9,022.8,7.8,0000.0,0001.36,0003.35,0001.02
2023-12-29 04:30:00,SystemResetWarning,0834.2,5.01,000.00,021.5,020.1,000.0,029.9,022.8,7.8,0000.0,0001.34,0003.00,0001.00
2023-12-29 04:31:00,SystemResetWarning,0834.4,5.00,000.00,021.5,020.2,000.0,029.9,022.8,7.8,0000.0,0001.35,0002.77,0001.01
2023-12-29 04:32:00,SystemResetWarning,0834.4,5.00,000.00,021.4,020.1,000.0,029.9,022.8,7.9,0000.0,0001.35,0002.79,0001.00
2023-12-29 04:33:00,SystemResetWarning,0834.3,5.00,000.00,021.4,020.1,000.0,029.8,022.8,7.8,0000.0,0001.38,0002.82,0001.00
2023-12-29 04:34:00,SystemResetWarning,0834.4,4.99,000.00,021.4,020.1,000.0,029.8,022.8,7.8,0000.0,0001.39,0002.92,0000.99
2023-12-29 04:35:00,SystemResetWarning,0834.3,5.00,000.00,021.4,020.1,000.0,029.8,022.7,7.8,0000.0,0001.40,0002.99,0000.99
2023-12-29 04:36:00,SystemResetWarning,0834.3,4.99,000.00,021.4,020.1,000.0,029.8,022.7,7.9,0000.0,0001.40,0002.91,0001.00
2023-12-29 04:37:00,SystemResetWarning,0834.3,4.99,000.00,021.4,020.1,000.0,029.8,022.7,8.0,0000.0,0001.39,0003.01,0000.99
2023-12-29 04:38:00,SystemResetWarning,0834.3,5.00,000.00,021.4,020.1,000.0,029.8,022.7,8.2,0000.0,0001.42,0003.15,0000.99
2023-12-29 04:39:00,SystemResetWarning,0834.3,5.01,000.00,021.3,020.1,000.0,029.8,022.7,8.0,0000.0,0001.40,0003.11,0001.02
2023-12-29 04:40:00,SystemResetWarning,0834.3,5.01,000.00,021.3,020.0,000.0,029.8,022.7,7.9,0000.0,0001.36,0002.90,0001.04
2023-12-29 04:41:00,SystemResetWarning,0834.3,5.00,000.00,021.3,020.0,000.0,029.7,022.7,7.8,0000.0,0001.37,0002.61,0001.05
2023-12-29 04:42:00,SystemResetWarning,0834.3,5.00,000.00,021.3,020.0,000.0,029.7,022.6,7.8,0000.0,0001.38,0002.58,0001.08
2023-12-29 04:43:00,SystemResetWarning,0834.3,5.00,000.00,021.3,020.0,000.0,029.7,022.6,7.8,0000.0,0001.43,0002.81,0001.11
2023-12-29 04:44:00,SystemResetWarning,0834.3,5.00,000.00,021.3,020.0,000.0,029.7,022.6,7.9,0000.0,0001.42,0002.79,0001.13
2023-12-29 04:45:00,SystemResetWarning,0834.3,5.00,000.00,021.3,020.0,000.0,029.7,022.6,7.9,0000.0,0001.40,0002.71,0001.15
2023-12-29 04:46:00,SystemResetWarning,0834.4,5.00,000.00,021.3,020.0,000.0,029.7,022.6,7.7,0000.0,0001.42,0002.76,0001.16
2023-12-29 04:47:00,SystemResetWarning,0834.3,5.00,000.00,021.3,020.0,000.0,029.7,022.6,7.8,0000.0,0001.45,0002.87,0001.16
2023-12-29 04:48:00,SystemResetWarning,0834.3,5.00,000.00,021.3,019.9,000.0,029.7,022.6,8.2,0000.0,0001.47,0002.78,0001.18
2023-12-29 04:49:00,SystemResetWarning,0834.3,5.00,000.00,021.3,019.9,000.0,029.7,022.6,8.0,0000.0,0001.44,0002.46,0001.22
2023-12-29 04:50:00,SystemResetWarning,0834.3,5.00,000.00,021.2,019.9,000.0,029.7,022.6,8.0,0000.0,0001.44,0002.45,0001.21
2023-12-29 04:51:00,SystemResetWarning,0834.3,5.00,000.00,021.2,019.9,000.0,029.6,022.6,8.0,0000.0,0001.42,0002.33,0001.20
2023-12-29 04:52:00,SystemResetWarning,0834.3,5.00,000.00,021.2,019.9,000.0,029.6,022.5,8.0,0000.0,0001.40,0002.27,0001.20
2023-12-29 04:53:00,SystemResetWarning,0834.4,5.00,000.00,021.2,019.9,000.0,029.6,022.5,8.0,0000.0,0001.40,0002.36,0001.19
2023-12-29 04:54:00,SystemResetWarning,0834.4,4.99,000.00,021.2,019.9,000.0,029.6,022.5,8.1,0000.0,0001.39,0002.26,0001.18
2023-12-29 04:55:00,SystemResetWarning,0834.4,4.99,000.00,021.2,019.9,000.0,029.6,022.5,8.1,0000.0,0001.40,0002.63,0001.16
2023-12-29 04:56:00,SystemResetWarning,0834.4,5.00,000.00,021.2,019.9,000.0,029.6,022.5,7.9,0000.0,0001.39,0003.32,0001.15
2023-12-29 04:57:00,SystemResetWarning,0834.4,4.99,000.00,021.2,019.8,000.0,029.6,022.5,7.9,0000.0,0001.36,0003.18,0001.14
2023-12-29 04:58:00,SystemResetWarning,0834.4,4.99,000.00,021.1,019.8,000.0,029.6,022.4,8.0,0000.0,0001.39,0003.17,0001.15
2023-12-29 04:59:00,SystemResetWarning,0834.4,4.99,000.00,021.1,019.8,000.0,029.5,022.4,8.1,0000.0,0001.37,0003.15,0001.15
